0 HST 1 20580U 90037B 25348.81671679 .00006498 00000-0 22258-3 0 9990 2 20580 28.4683 258.3524 0001798 266.6247 93.4143 15.28088062760316 0 ISS (ZARYA) 1 25544U 98067A 25348.86277765 .00007299 00000-0 13766-3 0 9993 2 25544 51.6306 131.9662 0003207 249.8734 110.1909 15.49595360543189 0 CXO 1 25867U 99040B 25349.26321703 .00000427 00000-0 00000-0 0 9990 2 25867 53.0917 122.4070 8132318 310.8570 0.2053 0.37806491 16624